Wind_Speed
22 21 19 17 16 17 16 14 12 10 9 7 5 4 3 2 2 3 4 5 6 7 7 7 7 6 6 6 6 6 6 7 7 7 6 6 5 5 4 4 3 2 1 0
24 23 21 20 19 19 18 16 15 13 13 11 10 8 6 5 4 3 3 4 4 5 5 6 6 6 6 5 6 6 6 6 6 6 6 5 5 4 4 4 3 2 2 1
24 23 23 23 22 21 19 18 17 16 15 14 13 10 8 8 7 6 4 5 5 6 6 5 5 5 5 4 4 5 5 5 5 5 5 5 5 4 4 4 4 3 3 2
26 24 25 24 23 23 22 20 20 19 19 17 16 14 11 11 9 8 7 6 7 7 7 7 6 6 6 5 5 5 4 4 5 4 4 4 5 5 5 4 4 4 5 5
27 26 26 25 24 24 23 23 23 22 21 21 19 17 13 13 11 10 9 9 9 9 9 9 9 9 9 7 6 6 6 5 5 5 5 5 5 6 6 6 5 5 6 6
28 28 28 27 26 25 24 25 25 25 24 23 20 20 16 13 12 11 11 11 11 12 13 12 11 11 11 10 9 8 8 6 6 6 6 6 7 7 7 7 6 6 7 7
29 29 29 28 27 27 26 26 26 26 26 24 21 22 18 15 14 13 12 13 13 13 14 14 13 13 12 12 11 10 9 9 8 7 7 8 9 9 8 8 7 7 8 8
29 30 29 29 28 28 27 28 28 27 26 25 24 24 20 19 17 16 15 14 15 15 16 15 15 14 14 14 14 12 11 11 10 10 9 9 10 10 9 9 9 9 10 10
29 29 29 29 28 29 29 28 27 29 28 28 27 25 23 21 20 19 17 17 16 17 17 17 16 16 16 16 17 15 14 13 13 12 12 12 11 11 11 10 10 11 11 11
29 29 29 29 29 29 30 29 29 29 29 29 29 27 25 23 22 21 19 18 18 18 18 18 18 17 17 17 17 17 17 16 16 15 15 14 14 13 13 12 12 12 13 13
29 30 29 30 31 30 30 31 31 31 31 31 31 29 26 24 23 21 20 19 19 19 19 18 18 18 18 17 18 18 19 20 19 18 17 17 16 15 15 14 14 14 15 15
30 31 31 31 31 31 32 32 32 33 33 33 33 31 27 26 25 23 22 21 20 19 19 19 18 19 19 19 19 20 21 22 21 21 20 19 18 17 17 16 16 16 17 17
32 33 32 32 33 33 34 33 33 34 34 34 34 32 28 28 27 26 25 24 23 23 22 21 20 21 20 21 21 21 21 22 23 23 21 20 20 20 19 19 18 18 18 18
34 35 34 33 33 33 34 34 34 34 34 35 34 32 29 29 30 29 28 27 26 24 23 23 22 22 22 22 22 23 23 23 23 22 22 22 21 21 22 22 21 21 21 20
36 36 35 34 33 34 34 34 35 35 35 35 34 33 31 29 30 30 28 28 27 27 25 24 24 23 23 23 23 23 23 24 24 24 23 23 23 24 24 24 24 24 23 24
37 38 37 35 35 35 35 35 35 35 35 36 35 34 31 29 29 29 28 28 28 27 26 24 24 24 24 24 25 25 25 25 25 26 25 24 25 25 25 26 26 26 25 24
37 38 38 37 36 37 36 35 35 35 34 35 35 33 32 31 30 28 27 28 27 27 26 25 26 26 26 26 25 26 26 25 26 27 26 26 26 27 26 26 27 27 26 24
38 38 38 37 37 38 36 35 35 35 34 34 35 34 32 31 30 30 29 29 28 27 27 26 25 26 26 26 26 26 26 27 27 27 28 28 27 27 27 27 27 28 28 27
39 38 38 38 38 38 36 35 35 35 35 34 34 33 33 32 31 30 30 29 29 29 28 26 26 26 26 26 26 27 27 27 29 29 29 28 28 28 28 28 29 29 29 28
39 39 39 39 39 39 36 35 35 35 35 33 34 33 33 32 31 29 29 29 29 29 28 27 28 28 28 28 28 28 28 28 28 29 30 30 30 30 29 30 30 30 30 30
39 38 38 38 39 39 37 36 36 36 34 32 32 32 32 33 31 30 30 30 30 30 29 30 30 30 30 30 29 29 29 30 30 31 30 29 29 29 30 31 31 31 32 32
38 38 38 38 38 38 36 36 36 34 33 33 32 32 32 31 31 31 32 32 31 30 30 31 31 31 31 30 30 30 29 30 30 30 30 30 30 29 30 31 31 32 32 33
36 36 37 38 38 37 36 36 34 34 33 32 32 31 31 31 31 31 31 30 30 30 30 30 31 30 30 31 31 30 30 30 30 30 30 31 31 32 32 32 32 33 34 34
34 34 35 36 37 37 36 36 34 33 33 32 31 30 30 31 30 30 30 30 30 28 29 29 29 30 31 31 30 30 30 31 31 30 31 32 32 32 32 32 33 34 34 35
32 33 34 34 35 35 35 35 34 33 32 31 30 29 30 30 29 29 30 30 29 28 28 28 29 30 30 30 31 31 31 31 31 31 31 32 32 32 32 32 32 33 33 34
30 31 31 31 30 30 31 32 32 32 31 31 30 29 29 29 28 28 29 28 28 27 27 28 29 30 30 30 30 30 30 30 31 31 31 32 31 30 31 31 31 32 32 33
Wind_Direction
226 226 227 230 231 229 230 237 242 245 251 258 261 275 281 289 327 1 6 13 18 26 26 26 29 28 24 26 31 35 33 34 36 38 42 43 43 45 42 40 40 43 40 253
226 227 226 229 233 232 234 238 243 248 252 255 257 262 268 277 288 306 333 340 345 351 1 7 15 16 14 14 14 16 20 19 20 23 27 30 30 29 23 18 14 11 354 319
226 226 227 230 233 235 239 240 242 247 253 257 259 260 264 273 279 288 300 309 309 315 320 328 342 347 349 353 353 355 2 6 6 8 12 16 16 11 10 6 0 349 336 320
226 225 228 231 235 239 241 243 243 246 254 257 262 262 261 264 269 277 284 289 290 296 298 307 309 312 312 318 319 325 336 343 341 349 349 350 351 350 344 336 325 321 316 301
227 227 229 232 236 241 243 245 246 248 253 257 261 264 259 260 265 272 276 276 278 282 288 292 296 295 295 293 297 299 305 312 320 323 327 327 326 330 330 325 312 308 308 297
228 228 229 231 235 239 241 244 248 249 252 255 259 261 259 262 265 269 272 271 273 277 282 286 294 292 287 284 286 285 291 292 300 306 307 308 310 311 314 316 309 299 298 298
230 230 231 232 236 238 240 244 247 249 251 255 258 258 261 262 264 266 271 271 270 276 283 286 288 292 285 282 280 280 282 283 284 289 291 293 295 295 296 302 303 296 291 290
233 232 233 235 237 240 242 246 248 252 255 257 257 258 259 260 263 265 269 271 272 277 283 285 284 285 284 282 280 275 277 276 276 282 281 281 285 286 291 288 289 294 292 289
236 236 236 237 238 240 243 244 247 252 256 258 257 259 259 261 263 265 268 270 271 274 278 281 277 277 281 278 277 270 269 271 273 276 281 280 280 282 284 287 287 291 293 293
238 238 236 237 238 239 241 242 245 249 254 258 259 260 262 262 265 266 268 269 271 272 275 278 274 274 282 279 275 269 268 271 271 272 274 278 283 284 281 284 285 286 288 290
239 240 237 237 238 239 240 242 244 249 254 258 261 262 265 266 268 268 267 269 271 273 275 277 277 275 278 282 280 276 271 270 269 269 271 275 281 286 284 283 282 284 284 284
241 243 241 239 240 240 241 243 244 248 253 258 262 264 265 266 266 269 269 269 269 272 275 274 275 277 278 281 283 280 269 267 268 267 269 272 278 282 281 280 280 283 284 284
241 243 244 242 242 242 243 243 245 248 252 255 260 264 264 263 266 269 270 270 270 271 274 273 274 274 274 276 278 280 270 269 270 268 269 272 276 275 276 278 280 283 285 285
241 243 245 245 245 246 247 247 247 249 252 256 259 263 264 263 265 269 271 270 272 273 273 272 272 272 272 273 274 278 273 274 272 272 269 271 272 273 275 275 277 279 283 284
243 244 245 246 247 248 249 250 250 251 254 257 260 263 265 266 265 267 268 269 272 273 274 272 270 269 269 271 274 274 273 273 272 273 273 272 272 274 275 275 277 277 280 282
243 245 246 246 246 248 250 251 252 253 254 257 260 262 264 264 265 266 267 268 272 275 276 274 269 266 267 269 271 271 271 271 270 272 273 274 273 273 275 275 276 278 280 281
242 245 246 247 247 249 250 251 254 254 255 256 258 261 263 264 265 267 268 269 271 273 275 271 268 266 268 269 270 271 271 269 268 270 273 274 274 274 273 275 276 278 278 280
242 243 246 248 249 251 251 251 253 254 255 256 257 260 262 263 265 266 266 267 268 270 271 270 268 269 270 270 271 273 272 268 268 270 273 274 273 272 273 273 276 277 279 280
242 243 246 248 250 252 251 253 254 255 254 255 256 258 260 262 264 265 266 266 267 270 271 270 271 270 270 271 271 272 272 270 271 271 274 274 273 273 274 275 276 277 278 280
242 244 246 249 251 252 252 253 255 254 254 255 256 256 257 260 262 265 266 266 267 268 269 269 269 270 272 272 271 271 272 271 271 273 273 274 274 273 274 274 275 276 277 279
243 244 246 248 251 252 253 254 255 255 257 256 257 257 257 259 261 263 264 265 266 267 268 268 268 270 272 272 273 274 275 274 274 275 275 274 274 274 275 275 275 276 277 278
245 245 247 249 251 252 252 254 255 256 257 257 259 259 259 260 260 261 262 264 265 265 265 266 267 269 271 271 272 273 274 276 276 276 275 275 274 274 275 275 275 276 277 278
246 247 248 249 251 252 254 254 255 256 257 258 259 260 259 260 261 262 262 262 263 264 265 267 269 270 272 272 272 271 273 275 276 278 279 279 279 279 278 276 277 278 279 279
246 248 248 249 251 252 253 252 252 254 256 257 258 259 260 261 261 261 262 263 264 266 269 271 272 272 273 273 273 274 274 275 277 279 280 281 282 281 282 280 277 277 278 279
247 248 250 252 253 253 252 251 250 251 254 255 255 257 260 260 258 259 261 264 267 268 269 269 271 273 274 275 276 277 276 276 279 280 280 281 282 282 281 281 281 280 280 281
244 247 250 251 252 253 251 249 250 251 253 253 256 257 258 258 257 258 262 266 269 270 269 270 272 274 274 275 278 280 279 279 280 280 280 281 281 280 281 281 282 282 282 283
Height
5882 5886 5888 5890 5891 5893 5893 5894 5896 5897 5898 5898 5899 5899 5899 5898 5899 5899 5899 5899 5898 5897 5896 5895 5894 5893 5892 5891 5890 5889 5888 5887 5886 5885 5884 5883 5882 5882 5881 5881 5880 5880 5880 5880
5880 5883 5886 5887 5888 5890 5891 5892 5894 5896 5896 5896 5897 5897 5897 5897 5898 5898 5898 5898 5898 5897 5896 5895 5894 5893 5892 5891 5891 5890 5889 5888 5887 5886 5885 5884 5883 5882 5882 5881 5881 5880 5880 5880
5876 5881 5882 5884 5885 5887 5889 5890 5892 5893 5894 5894 5895 5896 5896 5896 5896 5897 5897 5897 5897 5897 5895 5895 5894 5893 5892 5892 5891 5890 5889 5888 5887 5886 5886 5884 5884 5883 5882 5881 5881 5880 5880 5880
5872 5876 5878 5880 5882 5884 5886 5888 5889 5890 5891 5891 5893 5893 5895 5894 5895 5895 5895 5895 5896 5896 5895 5894 5893 5893 5892 5891 5890 5890 5889 5888 5887 5886 5885 5885 5884 5882 5882 5881 5880 5880 5879 5879
5868 5872 5874 5876 5879 5881 5883 5885 5885 5886 5887 5888 5889 5890 5892 5893 5893 5894 5894 5894 5894 5893 5893 5893 5892 5892 5891 5890 5889 5889 5888 5887 5886 5885 5885 5884 5883 5882 5881 5880 5880 5879 5878 5878
5864 5867 5869 5872 5875 5876 5878 5880 5881 5882 5883 5884 5887 5887 5888 5890 5891 5891 5891 5891 5891 5891 5891 5891 5890 5890 5889 5888 5888 5886 5886 5885 5885 5884 5884 5883 5882 5881 5880 5879 5879 5878 5877 5876
5859 5862 5864 5867 5869 5871 5873 5876 5877 5877 5878 5880 5883 5883 5885 5887 5887 5888 5889 5889 5889 5889 5888 5888 5888 5887 5887 5886 5885 5884 5884 5883 5882 5882 5882 5881 5880 5879 5879 5878 5877 5876 5876 5875
5853 5857 5859 5862 5864 5867 5868 5871 5873 5873 5874 5876 5877 5878 5882 5883 5883 5884 5885 5885 5885 5885 5885 5885 5884 5884 5884 5883 5882 5882 5881 5880 5880 5879 5878 5878 5877 5877 5876 5875 5874 5874 5873 5872
5848 5852 5855 5857 5859 5861 5863 5865 5867 5868 5869 5870 5871 5874 5876 5878 5879 5880 5881 5881 5881 5882 5881 5881 5880 5880 5880 5879 5878 5878 5877 5877 5877 5876 5875 5875 5874 5873 5873 5872 5871 5871 5871 5870
5842 5846 5849 5851 5853 5855 5857 5859 5861 5862 5863 5864 5866 5868 5871 5873 5874 5875 5876 5877 5877 5877 5877 5877 5876 5876 5876 5875 5874 5873 5874 5873 5873 5872 5871 5871 5871 5870 5869 5869 5868 5868 5868 5867
5836 5840 5843 5845 5846 5849 5851 5853 5855 5856 5857 5858 5859 5864 5866 5867 5869 5870 5871 5872 5872 5873 5873 5872 5872 5872 5871 5870 5869 5869 5869 5868 5867 5867 5867 5867 5866 5866 5865 5865 5865 5864 5864 5863
5829 5832 5835 5838 5841 5842 5844 5846 5849 5850 5851 5852 5854 5859 5860 5861 5863 5864 5865 5866 5867 5867 5867 5867 5867 5867 5866 5865 5865 5864 5862 5862 5862 5862 5861 5861 5861 5861 5861 5860 5860 5860 5859 5858
5822 5825 5827 5831 5834 5835 5836 5839 5841 5843 5845 5846 5847 5853 5853 5855 5856 5857 5858 5859 5860 5861 5861 5861 5862 5861 5861 5861 5860 5859 5857 5857 5857 5856 5855 5856 5856 5856 5856 5855 5855 5854 5854 5853
5814 5816 5820 5824 5826 5828 5830 5832 5834 5836 5837 5839 5841 5844 5846 5847 5849 5850 5851 5852 5853 5854 5855 5855 5855 5855 5855 5855 5854 5853 5852 5851 5851 5850 5850 5850 5850 5850 5849 5849 5849 5848 5847 5847
5806 5809 5811 5815 5818 5820 5822 5825 5827 5828 5830 5832 5834 5836 5839 5840 5841 5843 5844 5845 5846 5847 5847 5848 5848 5848 5848 5848 5847 5846 5845 5845 5845 5844 5844 5844 5843 5844 5844 5843 5843 5842 5841 5840
5797 5801 5803 5806 5809 5811 5813 5816 5818 5821 5823 5824 5826 5829 5831 5832 5834 5835 5837 5838 5838 5839 5840 5840 5841 5841 5841 5841 5840 5839 5839 5838 5838 5838 5838 5837 5837 5837 5837 5836 5836 5835 5834 5833
5789 5792 5795 5798 5800 5802 5805 5809 5811 5813 5815 5817 5819 5822 5823 5825 5827 5828 5829 5830 5831 5831 5832 5833 5834 5834 5834 5833 5833 5832 5832 5830 5831 5831 5830 5830 5830 5830 5829 5828 5828 5827 5827 5826
5781 5783 5786 5788 5791 5793 5800 5801 5803 5805 5807 5809 5811 5814 5815 5817 5819 5820 5822 5823 5823 5824 5824 5825 5826 5826 5826 5826 5825 5825 5824 5824 5824 5823 5823 5822 5822 5822 5821 5820 5820 5820 5819 5819
5771 5774 5777 5779 5781 5784 5790 5792 5794 5796 5798 5801 5803 5805 5807 5809 5810 5812 5814 5815 5815 5816 5817 5817 5818 5818 5818 5818 5818 5818 5817 5816 5816 5816 5815 5815 5814 5813 5813 5812 5812 5812 5812 5811
5762 5765 5768 5770 5772 5775 5781 5784 5784 5787 5789 5793 5795 5797 5799 5801 5803 5805 5806 5807 5807 5808 5808 5809 5810 5810 5810 5810 5810 5809 5809 5808 5808 5807 5807 5806 5805 5805 5804 5804 5803 5803 5803 5802
5752 5755 5758 5760 5762 5765 5771 5773 5775 5779 5782 5784 5786 5788 5790 5792 5795 5797 5797 5798 5798 5799 5800 5801 5801 5801 5802 5802 5801 5801 5800 5800 5800 5799 5798 5797 5797 5796 5796 5796 5795 5794 5793 5792
5743 5746 5749 5751 5753 5759 5761 5763 5766 5769 5772 5774 5777 5779 5782 5784 5785 5787 5788 5789 5789 5789 5790 5791 5792 5792 5793 5792 5792 5792 5792 5791 5790 5790 5789 5789 5788 5787 5786 5786 5786 5785 5784 5783
5734 5738 5740 5743 5747 5749 5752 5754 5757 5760 5762 5765 5767 5770 5772 5774 5776 5778 5779 5779 5780 5781 5781 5782 5782 5783 5783 5782 5782 5782 5782 5782 5781 5781 5781 5780 5779 5777 5776 5776 5776 5775 5774 5773
5726 5728 5731 5733 5736 5739 5742 5744 5747 5750 5753 5756 5759 5761 5763 5765 5767 5768 5769 5770 5771 5771 5772 5772 5772 5773 5773 5773 5773 5773 5773 5772 5772 5772 5771 5771 5770 5769 5767 5766 5765 5764 5764 5762
5718 5720 5722 5724 5727 5729 5732 5735 5738 5741 5744 5747 5750 5752 5754 5756 5758 5759 5760 5761 5761 5762 5762 5763 5763 5764 5764 5764 5764 5763 5763 5763 5762 5762 5761 5761 5760 5759 5758 5757 5755 5754 5754 5752
5710 5712 5714 5716 5719 5721 5724 5726 5730 5733 5736 5739 5741 5744 5746 5747 5749 5751 5752 5753 5753 5754 5754 5754 5755 5754 5754 5754 5754 5754 5754 5753 5753 5753 5752 5751 5750 5749 5748 5747 5746 5744 5743 5742